Location: Antichan
(42.9728°N, 0.6667°E)
Time: 13:22:52
(UTC+00:00)

Cosmos 1763 Rocket - Pass Details

Date: 15 August 2020
Orbit: 732 x 780 km, 74.0° (Epoch: 24 September)

Event Time Altitude Azimuth Distance (km) Brightness Sun altitude
Rises 21:03:27 0° 337° (NNW) 3,274 7.9 -20.2°
Reaches altitude 10° 21:05:51 10° 336° (NNW) 2,342 7.0 -20.5°
Maximum altitude 21:11:09 72° 253° (WSW) 821 3.6 -21.2°
Enters shadow 21:13:12 38° 179° (S) 1,176 4.1 -21.5°
